Regional Weather Roundup
Issued by NWS Wakefield, VA

Home | Current Version | Previous Version | Text Only | Print | Product List | Glossary On
Versions: 1 2 3 4 5 6 7 8 9 10 11 12 13 14 15 16 17 18 19 20 21 22 23 24 25 26 27 28 29 30 31 32 33 34 35 36 37 38 39 40 41 42 43 44 45 46 47 48 49 50
000
ASUS41 KAKQ 031115
RWRAKQ

REGIONAL WEATHER ROUNDUP
NATIONAL WEATHER SERVICE WAKEFIELD VA
700 AM EDT THU SEP 03 2015

Note: "fair" indicates few or no clouds below 12,000 feet with no
significant weather and/or obstructions to visibility. * = Denotes
station may not report precipitation (e.g., rain,snow,etc.),
thunder or fog.

VAZ042-051-052>054-056-031200-
NORTHERN VIRGINIA

CITY           SKY/WX    TMP DP  RH WIND       PRES   REMARKS
WASH NATIONAL  PTCLDY    75  66  73 N7        29.91R
DULLES         PTCLDY    66  65  96 CALM      29.93R
FORT BELVOIR   CLEAR     66  65  96 SE1       29.91R FOG
QUANTICO       CLEAR     69  65  86 NW5       29.93R
FREDERICKSBRG* CLEAR     68  68 100 CALM      29.92R
STAFFORD*      CLEAR     64  62  94 CALM      29.97R
WARRENTON      FOG       64  64 100 CALM      29.93R VSB 1/4
CULPEPER*      CLEAR     63  63  99 CALM      29.95R FOG
MANASSAS*      CLEAR     64  64 100 CALM      29.93R HAZE
LEESBURG*      CLEAR     73  68  83 NW3       29.94R
WINCHESTER     CLEAR     64  64 100 CALM      29.97R FOG
FRONT ROYAL*   FAIR      64  63  94 S6        29.96S
LURAY*         PTSUNNY   61  61 100 CALM      29.99S FOG
$$

VAZ048-049-060>072-079>083-031200-
CENTRAL AND SOUTH CENTRAL VIRGINIA

CITY           SKY/WX    TMP DP  RH WIND       PRES   REMARKS
RICHMOND       PTCLDY    69  66  90 W3        29.93R FOG
CHESTERFIELD*  FAIR      66  55  68 CALM      29.95R
PETERSBURG*    CLEAR     65  65 100 CALM      29.95R FOG
HANOVER        CLEAR     67  66  97 W3        29.95R FOG
TAPPAHANNOCK*  CLEAR     67  64  90 CALM      29.93R FOG
QUINTON*       FAIR      66  66  98 CALM      29.92S FOG
CHARLOTTSVILLE CLEAR     66  63  90 SW5       29.95R
GORDONSVILLE*  FAIR      64  64  98 CALM      29.94R FOG
ORANGE*        CLEAR     64  63  94 CALM      29.96R FOG
LOUISA*        CLEAR     66  64  94 CALM      29.94R FOG
BUMPASS*       FAIR      65  64  99 CALM      29.94R
FARMVILLE*     FOG       62  62 100 CALM      29.94S VSB 3/4
CREWE*         FAIR     N/A N/A N/A CALM      29.95R
FORT PICKETT*    N/A     62  62  97 CALM      29.95S VSB 1/4
CHASE CITY*    FAIR      67  67 100 CALM      29.96S
CLARKSVILLE*   CLOUDY    64  64 100 CALM      29.96R VSB 1
SOUTH HILL*    CLEAR     63  63 100 CALM      30.01R
LAWRENCEVILLE* CLOUDY    64  64 100 CALM      29.94S VSB 1/2
EMPORIA*       FOG       66  66 100 CALM      29.95S VSB 1/4
$$

VAZ088>098-031200-
SOUTHEAST VIRGINIA

CITY           SKY/WX    TMP DP  RH WIND       PRES   REMARKS
NORFOLK        CLEAR     73  69  87 CALM      29.91S
VIRGINIA BEACH PTCLDY    74  68  81 CALM      29.90S
NORFOLK NAVAL  PTCLDY    73  69  87 W5        29.93R
WEST POINT*    CLEAR     71  67  89 W5        29.93S
SALUDA*        FAIR      68  67  96 NW3       29.91S
NEWPORT NEWS   CLEAR     70  68  93 W3        29.92R
LANGLEY AFB    CLEAR     70  68  94 W5        29.90S
FORT EUSTIS    CLEAR     71  70  98 W3        29.90R
WILLIAMSBURG*  CLEAR     72  70  94 W3        29.93R
HR EXEC AP*      N/A     70  66  88 CALM      29.94S VSB 1/2
FRANKLIN*      FOG       68  68 100 CALM      29.93S VSB 1/2
WAKEFIELD      CLEAR     68  65  90 CALM      29.93R FOG
$$

VAZ020-022-025-037-045-031200-
WEST CENTRAL AND SOUTHWEST VIRGINIA

CITY           SKY/WX    TMP DP  RH WIND       PRES   REMARKS
STAUNTON*      FOG       62  60  95 CALM      30.03S VSB 3/4
WAYNESBORO*    FAIR      63  61  95 MISG      30.02R
HOT SPRINGS VA CLEAR     64  64 100 NW9       30.13S FOG
LYNCHBURG      CLEAR     62  61  96 CALM      29.99S
DANVILLE       CLEAR     64  62  93 SW3       29.97S FOG
SOUTH BOSTON*  PTSUNNY   62  60  95 SW3       29.96S VSB<1/4
MARTINSVILLE   PTCLDY    62  62 100 CALM      30.02R FOG
ROANOKE        CLEAR     67  63  87 CALM      30.04R
BLACKSBURG     CLEAR     64  64  99 NW5       30.11R FOG
DUBLIN*        CLOUDY    63  63  99 W5        30.09S FOG
MARION*        MOCLDY    62  61  96 CALM      30.14R FOG
HILLSVILLE*    PTCLDY    64  62  93 W3        30.10S
RICHLANDS*     FAIR      63  37  37 CALM      30.12S HAZE
WISE*          PTCLDY    66  64  94 CALM      30.14S
ABINGDON*      MOCLDY    65  62  90 CALM      30.09S
$$

MDZ021>025-VAZ099-100-031200-
SOUTHERN MARYLAND AND THE DELMARVA PENINSULA

CITY           SKY/WX    TMP DP  RH WIND       PRES   REMARKS
PATUXENT RIVER CLEAR     71  66  84 W7        29.90R
BAY BRIDGE APT   N/A     73  68  83 NW3       29.90R
LEONARDTOWN    NOT AVBL
DOVER          CLEAR     71  71 100 W5        29.88R
GEORGETOWN     CLEAR     71  70  96 NW3       29.90R FOG
EASTON         PTCLDY    70  70 100 CALM      29.93R FOG
CAMBRIDGE      CLEAR     70  66  88 CALM      29.89S
SALISBURY      CLEAR     69  69 100 CALM      29.89R FOG
OCEAN CITY     CLEAR     72  69  90 NW6       29.89R
WALLOPS ISLAND CLEAR     73  72  96 W6        29.90R
ACCOMACK*      CLEAR    N/A N/A N/A W7        29.90S HAZE
$$

NCZ012>017-030>032-031200-
NORTH CENTRAL AND EASTERN NORTH CAROLINA

CITY           SKY/WX    TMP DP  RH WIND       PRES   REMARKS
ROANOKE RAPIDS FOG       68  68 100 W3        29.95R VSB 1/4
RALEIGH        FOG       69  68  96 CALM      29.96R VSB 1/8
ELIZABETH CITY PTCLDY    69  68  96 CALM      29.92S
AHOSKIE*       FOG       66  66  99 CALM      29.94R VSB<1/4
EDENTON*       PTCLDY    67  66  97 NW3       29.92S FOG
CURRITUCK*     PTCLDY    70  67  92 CALM      29.92S FOG
KILL DEVIL HLS PTCLDY    73  69  89 CALM      29.91S
MANTEO         PTCLDY    73  70  91 NW3       29.92S
CAPE HATTERAS  MOCLDY    75  72  90 N3        29.92R
TARBORO*       CLOUDY    71  70  97 CALM      29.95R FOG
GOLDSBORO      CLEAR     69  69 100 N5        29.93R
WASHINGTON     CLEAR     68  67  98 CALM      29.94R FOG
GREENVILLE     CLOUDY    70  70 100 NW3       29.95S FOG
NEW BERN       PTCLDY    69  66  90 CALM      29.93S
WILMINGTON     CLEAR     73  68  84 CALM      29.93F
$$

VAZ048-031200-
ELSEWHERE

CITY           SKY/WX    TMP DP  RH WIND       PRES   REMARKS
HARRISBURG PA  PTCLDY    72  66  81 NW8       29.91S HAZE
BALTIMORE      PTCLDY    69  67  93 NW3       29.90R
ANNAPOLIS      CLEAR     74  70  87 NW3       29.90R
ANDREWS AFB    CLEAR     73  66  78 NW5       29.91R
PHILADELPHIA   PTCLDY    77  64  64 CALM      29.89S
HENDERSON NC   FOG       65  64  94 CALM      29.97R VSB 1/2
GREENSBORO     MOCLDY    69  66  90 W3        29.98R
ROCKY MOUNT    CLOUDY    70  69  97 W3        29.95R FOG
$$

VAZ100-031200-
MARINE

STATION/POSITION TIME  TEMP    WIND        PRES    WAVE   SWELL
                       AIR SEA DIR/SP/G            HT/PER HT/PER
                 (UTC) (F)     (DEG/KT/KT) (MB)    (FT/S) (FT/S)
BRANDYWINE LGT   1000   74 76  310/  8/ 10 1012.0R
CAPE MAY NJ      1000   75 79  310/  5/  8 1011.3R
LEWES DE         1000   73 76  280/  5/  6 1011.6R
15NM E FENWICK I 1050   76 79  280/ 10/ 10 1011.9R   1/13   2/13
OCEAN-CITY-INLET 1000   74 78  320/  5/  6 1010.9R
THOMAS POINT MD  1000   75 80  320/  8/  9 1012.6
GOOSES REEF MD   1100   77 80  340/  8/ 10 1013.4R
COVE POINT MD    1000   74     330/  6/  9 1012.7F
SOLOMONS ISLAND  1000      81                N/A
BISHOPS HEAD MD  1000   77 80  300/  6/  7 1011.1F
PINEY POINT MD   1005          290/  7/  8   N/A
POTOMAC MD       1100   74 80  280/ 10/ 12 1011.6R   1/ 2
CAMBRIDGE MD     1000   74 81  240/  5/  7 1011.1S
LEWISETTA VA     1000   72 81  270/  7/  8 1011.9F
RAPPAHANNOCK LGT 1000          270/  9/ 10 1012.8F
STINGRAY PT      1100   73 80  280/ 12/ 14 1013.1R
YORK RVR RNG VA  1000   75     270/ 11/ 12 1011.9F
JAMESTOWN VA     1100   71 81  280/  6/  8   N/A
DOMINION TERM VA 1000   73     310/  9/ 11 1012.6F
KIPTOPEKE VA     1000      80  310/  9/ 11   N/A
CHES BAY BRIDGE  1000   75 79  250/ 10/ 12 1012.2R
CAPE HENRY VA    1000   73     260/  7/  9   N/A
CHESAPEAKE LGHT  1000   75     270/ 13/ 14 1013.3R
WILLOUBY STN VA  1000   74     310/  9/ 10 1013.5S
CAPE HENRY BUOY  1028      79                N/A     2/ 9
1ST LANDING BUOY 1100      79              1012.6S   1
CAPE CHARLES BUO 1026      78                N/A     1/13   2/13
OFFSHORE WE BUOY 1011      79                N/A     2/ 3   2/ 8
64NM E OF VA BCH 1050   77 79  270/ 10/ 10 1012.3R   2/ 8   2/ 8
DUCK PIER NC     1000   74 80  310/  5/  9 1012.2F
44100 DUCK FRF   1024      79                N/A     2/13
44056 DUCK FRF   1011      80                N/A     1/13
OREGON INLET NC  1000   75 82  310/  3/  4 1012.9S
HATTERAS NC      1000   78 83  260/  8/ 11 1012.2F
DIAMOND SHLS NC  1050   81 85  340/  2/  6 1012.9R   2/ 7   2/ 7
CAPE LOOKOUT NC  1100   76     290/  7/  8 1012.6R
$$



USA.gov is the U.S. government's official web portal to all federal, state and local government web resources and services.